ECMWFNIL_prec_cthk_042.txt.gz
RH
82 82 81 81 82 82 80 78 77 76 75 73 68 62 57 53 49 46 43 39 36 34 33 30 29 29 28 27 28 33 37 38 36 36 37 37 37 37 36 36 36 35
81 80 79 79 80 80 80 78 78 78 78 78 76 71 65 59 54 50 48 46 43 40 38 34 30 30 30 30 32 36 37 36 32 31 32 32 32 32 32 32 32 31
79 79 79 80 81 80 79 79 78 78 78 77 76 74 70 64 59 55 53 51 48 45 42 36 31 29 29 30 34 37 36 34 31 30 31 31 32 32 33 33 32 29
80 81 82 82 82 81 80 79 78 77 77 77 77 75 73 69 65 60 56 54 52 48 44 38 32 30 31 32 35 36 36 36 35 35 37 37 38 39 39 39 37 35
82 84 84 84 83 82 81 80 79 78 77 77 77 77 76 73 69 64 59 56 54 51 47 41 36 34 35 37 38 37 36 36 37 41 43 43 43 44 46 45 44 44
84 85 86 86 85 84 83 82 82 81 79 79 78 79 78 76 73 68 62 58 56 54 51 45 40 38 38 38 39 38 38 38 40 44 47 47 49 50 51 52 53 53
86 86 87 86 86 86 87 87 86 85 84 83 82 82 81 80 76 72 67 61 58 56 54 50 46 43 42 40 39 40 42 43 46 49 50 51 51 50 52 57 60 59
89 89 89 89 90 90 91 92 92 91 89 87 86 84 83 82 80 77 72 67 63 59 57 55 54 53 50 47 45 46 48 51 52 54 53 53 53 53 58 64 65 64
91 91 92 93 93 94 95 96 96 96 96 94 92 89 85 83 82 79 77 72 68 64 60 58 58 58 56 53 52 51 53 54 56 56 56 57 59 62 67 69 69 69
92 93 95 96 96 97 97 98 98 99 100 100 97 93 89 86 84 81 79 76 73 69 65 62 60 59 57 55 53 53 54 56 57 58 58 61 64 67 69 71 73 73
94 96 98 98 99 98 98 99 99 99 100 101 100 96 92 91 88 85 82 79 77 73 70 67 64 60 57 55 54 54 54 56 58 59 60 62 65 68 70 73 76 77
95 98 99 99 99 99 99 99 100 100 100 100 101 99 96 95 93 91 89 85 82 78 73 71 68 62 59 57 54 54 55 57 59 60 62 65 68 70 72 75 79 81
96 98 99 100 100 99 100 100 100 100 100 100 100 100 100 99 98 98 97 94 90 85 79 76 71 64 61 58 55 52 53 57 60 62 64 68 71 72 74 77 81 83
97 98 99 100 100 100 100 100 100 100 100 100 100 100 100 101 100 100 98 98 96 92 86 80 73 66 62 60 57 54 54 56 60 64 66 67 70 72 75 78 82 84
93 96 98 100 101 101 101 100 100 100 100 100 100 100 100 101 101 101 99 97 96 93 90 85 77 70 66 63 62 61 60 60 61 63 64 66 69 73 76 80 83 87
87 89 92 95 97 98 100 100 100 100 100 100 100 100 100 100 101 102 101 99 97 94 91 87 81 77 73 70 69 70 69 67 64 63 64 67 72 76 80 83 85 90
86 86 86 89 91 92 94 96 98 99 99 100 100 100 100 100 101 101 101 99 96 93 89 85 83 81 80 79 78 78 78 77 74 70 68 71 77 80 82 85 87 90
88 87 86 87 88 89 89 90 92 94 95 97 97 98 98 98 98 98 98 96 94 91 87 85 84 83 83 85 85 85 86 86 85 81 77 77 80 84 85 87 88 89
84 84 83 84 87 87 86 85 86 88 90 92 94 95 95 94 94 94 94 94 93 91 90 88 87 88 89 89 90 90 90 90 91 90 86 83 83 85 88 90 90 90
79 79 80 82 84 86 86 85 85 86 87 87 88 89 90 91 91 91 92 92 91 91 90 89 88 89 91 92 92 92 92 92 93 93 93 90 87 87 88 89 91 91
76 78 79 81 83 84 84 85 85 86 86 85 84 85 86 86 86 86 87 87 88 88 89 89 86 85 87 89 90 90 90 91 92 94 96 96 95 93 91 90 90 90
77 79 82 83 84 85 86 86 86 86 85 83 83 83 84 85 85 85 84 83 81 81 83 84 83 82 83 85 87 88 87 87 90 92 95 97 97 97 96 94 91 89
78 80 81 83 85 88 89 89 89 89 89 88 86 85 85 85 85 85 84 83 81 79 78 78 77 76 76 78 81 84 85 87 89 91 94 96 96 97 97 97 93 89
78 78 78 79 82 86 89 90 89 90 90 91 90 90 90 89 88 86 84 84 84 81 78 76 75 75 74 73 74 78 81 83 86 90 94 96 97 97 97 98 96 90
74 74 74 76 77 81 84 86 88 88 88 89 90 91 92 92 91 90 87 83 82 83 80 78 77 79 79 75 72 74 76 76 78 86 93 94 95 98 97 98 99 94
72 71 71 73 75 78 79 82 85 87 87 87 88 90 93 94 93 92 89 84 81 83 85 84 81 80 80 80 77 75 76 75 73 78 88 92 94 97 97 98 100 99

ECMWFNIL_prec_cthk_045.txt.gz
RH
69 68 68 68 68 69 69 70 71 71 71 70 69 68 68 69 68 68 67 66 63 59 54 50 44 38 35 33 32 32 33 33 34 37 41 44 45 46 47 48 48 47
67 67 68 70 70 71 72 72 73 73 72 71 70 69 69 69 69 69 68 68 66 63 59 56 52 47 43 40 37 35 33 32 30 30 34 37 38 40 41 42 45 47
68 69 71 72 73 74 74 74 74 73 73 72 72 71 70 70 70 69 69 69 68 66 62 60 57 54 50 45 42 39 37 36 33 30 31 32 33 35 36 37 41 45
70 72 74 75 75 76 75 75 75 75 75 75 75 75 74 73 73 72 71 71 70 68 63 59 58 56 52 48 45 41 39 40 37 32 30 30 30 30 32 35 40 44
73 75 76 77 78 78 77 77 78 78 79 80 81 81 80 78 77 75 74 73 72 69 64 59 56 54 52 49 46 42 40 41 39 33 29 29 29 29 32 37 40 42
75 77 78 79 79 79 80 81 82 84 85 86 88 88 88 85 82 79 78 76 74 72 67 60 57 55 54 52 48 44 41 39 36 31 28 27 28 30 34 37 38 38
77 79 80 81 81 81 83 84 86 88 90 92 93 93 94 92 89 84 81 79 77 75 70 63 59 58 56 54 51 48 43 36 31 28 27 28 28 31 33 34 34 34
80 81 82 83 83 85 87 88 90 93 95 96 96 97 97 98 95 89 85 82 79 77 74 66 62 60 58 56 53 50 45 40 33 30 29 30 31 32 33 33 33 35
83 84 84 84 86 88 90 92 94 96 98 98 99 99 99 100 99 93 89 86 81 79 77 70 65 63 61 59 57 53 50 47 43 40 39 39 40 40 39 39 40 40
82 84 85 86 87 89 91 94 96 98 100 100 100 100 100 101 100 95 92 91 86 82 80 75 69 65 62 61 60 57 53 51 50 50 51 51 51 51 51 49 49 49
76 81 84 86 89 91 92 94 96 98 100 100 100 100 100 101 100 97 95 94 92 88 85 80 74 69 65 62 61 60 56 52 52 52 53 55 55 56 57 56 56 57
73 76 80 84 88 91 93 94 96 98 99 100 100 100 100 100 100 100 99 98 97 94 91 88 82 76 70 65 62 62 60 57 55 54 54 54 55 56 58 59 61 61
74 75 78 81 84 87 90 93 95 98 100 100 100 100 101 101 100 100 101 100 100 99 97 95 92 86 79 71 64 61 61 61 59 59 59 58 58 60 62 64 66 67
75 77 79 80 82 83 86 88 91 95 98 99 100 100 100 101 101 101 101 101 100 99 98 98 97 93 88 79 70 64 62 62 62 62 62 62 62 62 63 65 68 69
74 77 79 80 81 83 84 85 86 88 91 93 96 98 99 100 100 100 101 102 101 100 98 97 96 94 91 86 77 69 65 64 65 65 64 65 65 63 60 61 64 67
74 77 79 79 80 82 82 84 85 85 86 86 87 90 93 95 97 98 98 99 100 99 98 96 95 92 89 85 80 75 72 69 68 66 66 67 68 67 62 60 62 64
76 78 80 81 82 83 82 83 84 85 86 84 83 84 86 88 90 92 93 95 95 95 93 92 91 88 85 82 79 79 78 76 74 72 70 70 71 70 67 63 62 64
75 76 78 81 85 86 85 85 85 85 85 84 82 82 83 84 85 85 87 89 90 91 91 89 87 86 85 83 81 80 80 79 80 79 78 76 75 75 72 67 63 64
72 73 75 78 81 84 86 88 87 86 87 87 85 82 82 84 85 84 83 83 83 85 86 86 86 86 86 87 86 84 83 83 83 84 84 83 82 81 80 76 70 69
68 69 71 74 77 78 81 86 89 89 88 90 90 88 87 88 87 85 83 83 83 82 80 80 80 81 84 86 88 88 87 88 88 87 86 86 85 85 85 84 81 78
66 67 68 71 74 75 77 81 86 89 89 91 92 92 91 92 92 88 84 83 85 86 83 78 76 76 78 79 82 85 86 87 88 89 89 88 87 86 87 88 89 88
65 66 67 69 72 73 74 76 78 81 84 88 91 92 93 93 94 91 85 82 84 87 86 82 78 76 76 74 73 77 80 82 83 84 86 88 87 87 89 91 92 93
64 65 66 68 71 72 72 72 73 74 76 80 83 87 91 93 93 89 83 82 85 87 86 84 80 79 79 77 74 72 73 76 78 78 79 83 87 89 91 92 94 94
64 65 65 67 71 73 72 72 74 75 75 74 76 79 83 89 92 89 84 83 85 87 86 85 83 83 82 81 79 76 74 74 75 75 75 78 85 90 90 91 93 93
62 64 64 65 67 69 71 73 75 76 76 75 74 73 76 81 85 87 88 90 89 87 88 87 86 86 84 83 82 81 79 78 76 75 74 75 80 86 89 90 92 93
62 62 63 63 64 65 66 69 73 75 75 75 74 73 73 75 78 80 85 90 92 91 92 91 88 87 86 86 83 81 81 81 77 76 75 73 76 83 89 92 93 94

ECMWFNIL_prec_cthk_048.txt.gz
RH
61 61 61 62 63 63 64 64 64 64 64 64 64 64 63 63 62 61 61 61 60 59 59 60 59 58 56 55 53 50 47 42 36 32 31 31 35 42 49 53 55 54
62 62 63 64 65 66 66 66 66 66 67 67 67 66 66 65 64 64 64 63 63 62 61 61 60 59 58 57 55 55 53 50 45 39 33 29 27 29 37 47 57 61
63 64 66 67 67 68 69 69 69 69 69 69 69 69 69 69 69 69 69 68 67 66 65 63 62 61 59 58 57 58 59 56 52 48 40 34 29 25 27 34 45 54
63 66 69 70 71 71 71 71 71 70 71 72 73 74 74 74 75 75 75 75 73 72 70 67 65 63 61 60 59 58 59 57 53 51 46 40 36 30 26 28 33 37
61 66 70 72 72 73 73 73 73 73 74 75 77 78 80 81 82 82 82 82 81 78 75 71 68 65 63 62 60 59 59 56 53 51 48 44 41 37 32 30 31 31
58 63 67 70 71 72 74 75 76 77 77 79 80 83 85 87 89 90 90 90 89 85 80 73 69 67 66 64 62 61 58 55 53 51 49 47 45 41 37 34 34 33
58 60 64 67 69 71 73 76 78 80 81 84 85 87 90 92 94 96 97 97 96 91 85 78 72 69 68 67 66 63 59 55 53 52 49 48 47 44 41 38 35 33
59 61 63 66 67 69 71 74 77 80 83 87 90 92 93 94 96 99 100 100 98 95 90 84 78 73 71 71 69 65 58 55 55 51 48 47 46 43 41 41 38 33
61 63 64 66 67 69 70 72 75 79 83 87 91 94 96 96 98 100 101 100 98 96 93 89 84 80 76 74 72 66 59 57 56 52 48 47 45 42 38 36 34 30
63 64 66 67 68 69 70 72 75 78 82 85 89 94 97 98 98 100 100 101 100 98 95 92 90 87 83 79 74 67 61 60 59 55 52 50 47 44 40 36 32 29
63 65 67 68 69 69 71 73 75 78 81 83 86 90 95 97 99 100 100 100 101 100 99 97 94 92 90 86 80 71 63 63 62 59 56 53 50 48 46 44 42 38
63 65 68 71 72 72 73 74 76 79 81 82 83 86 90 93 96 99 100 99 100 101 100 99 97 96 95 92 87 78 67 63 64 62 60 58 55 52 50 50 49 48
62 64 67 70 73 75 77 78 79 81 83 84 83 83 84 87 91 94 97 98 98 99 100 99 98 97 97 96 94 87 77 68 64 63 63 62 61 59 57 55 53 53
60 61 63 67 71 75 78 81 83 83 86 87 86 85 83 83 85 87 91 94 94 95 97 99 99 98 97 96 95 92 87 78 71 67 65 65 65 65 64 63 62 59
58 59 60 62 65 69 73 78 82 83 85 87 88 88 86 85 84 83 85 88 89 89 91 93 96 98 98 96 95 93 90 84 78 73 70 69 69 69 68 68 69 68
58 58 58 59 61 63 66 70 75 80 83 86 88 88 88 88 87 84 83 85 86 86 87 87 88 91 93 94 93 91 88 84 80 78 77 76 74 73 73 72 72 72
58 58 58 58 59 61 63 65 68 72 77 82 87 89 90 90 88 86 85 86 86 86 87 86 85 85 86 88 89 89 87 84 82 81 81 81 80 79 78 77 76 75
57 58 58 58 58 61 63 66 67 69 71 74 78 83 89 91 89 85 84 86 86 87 87 87 86 84 82 83 85 87 88 88 87 86 85 85 85 85 84 83 82 81
57 57 58 58 58 60 63 67 68 69 70 70 70 72 79 87 89 86 84 84 85 87 88 88 87 86 83 79 79 82 86 88 90 90 91 92 91 90 90 89 88 87
56 56 57 58 58 58 61 65 67 68 69 70 69 68 70 77 84 87 88 87 86 87 88 88 88 88 86 81 77 76 79 83 85 87 90 93 95 94 94 94 92 91
56 56 57 57 58 58 59 62 65 66 68 69 70 70 71 72 74 80 85 88 89 89 89 88 88 88 89 87 81 77 75 77 79 82 84 87 90 93 94 94 94 94
57 57 57 58 58 58 59 61 63 64 66 69 71 73 74 73 71 73 77 82 86 90 91 91 89 88 89 90 89 84 80 78 78 78 79 80 83 86 89 89 90 91
63 59 57 58 59 59 60 62 63 63 64 67 70 73 75 73 70 71 73 77 83 86 88 91 92 92 91 91 92 92 89 86 83 81 80 79 78 80 83 85 86 88
70 68 63 59 59 60 61 62 64 63 63 65 68 72 74 71 70 71 71 74 81 84 84 87 91 93 92 91 92 94 94 93 90 87 85 82 79 79 80 81 84 89
69 73 73 69 63 61 60 62 64 64 65 66 69 72 72 70 70 72 71 71 77 82 84 84 85 88 89 89 89 90 92 93 91 89 88 85 81 80 79 77 81 89
64 70 75 77 74 70 66 63 64 66 66 67 69 71 71 69 70 73 73 71 73 77 81 83 83 84 84 85 86 86 87 88 88 88 89 84 80 82 80 75 78 87

ECMWFNIL_prec_cthk_051.txt.gz
RH
42 43 46 50 55 57 59 60 60 60 60 60 60 60 61 60 60 59 58 58 57 57 56 55 54 53 52 52 51 49 48 47 45 44 45 46 46 44 42 39 36 35
41 43 45 49 54 58 60 61 63 63 63 64 63 63 63 63 63 62 62 61 61 61 60 60 58 56 55 54 53 52 51 49 48 45 44 44 46 47 45 42 38 34
41 44 46 48 51 55 58 60 61 63 65 66 66 66 67 67 68 68 68 67 68 68 68 67 65 62 59 57 57 55 53 52 50 49 47 45 47 49 49 46 42 39
41 44 46 48 51 53 56 58 59 61 63 66 67 68 69 71 72 73 74 75 76 77 76 75 74 71 66 62 60 59 57 55 53 52 51 50 50 50 51 51 47 43
40 43 46 48 51 53 55 57 59 60 62 64 67 69 71 72 75 76 78 79 82 85 85 84 83 81 75 69 65 63 61 58 55 54 53 53 53 53 53 54 50 46
40 43 46 49 51 53 55 56 57 59 61 63 66 69 71 73 75 78 81 83 86 89 91 90 90 88 84 78 73 68 65 62 59 57 56 56 57 57 56 54 51 48
40 43 46 49 53 55 57 58 59 60 61 63 65 67 71 74 76 79 82 86 89 91 93 93 93 91 89 85 79 73 69 67 65 63 63 62 61 59 56 53 50 48
41 44 46 49 53 56 58 59 61 63 65 66 67 68 71 73 76 79 82 85 88 91 94 94 93 92 91 89 85 80 74 72 71 69 66 63 60 56 53 50 47 44
41 43 45 49 52 55 58 60 61 63 66 69 71 72 73 73 74 77 80 83 86 89 93 96 95 93 91 91 89 85 80 76 72 68 65 60 56 50 46 44 42 40
41 43 45 47 50 54 57 59 62 64 67 70 71 73 76 77 76 76 78 80 83 86 89 94 96 95 93 91 89 88 84 78 72 66 62 57 51 47 45 44 44 42
41 43 45 47 49 51 54 56 60 63 67 71 73 74 76 77 78 77 77 78 80 83 86 89 93 96 95 92 89 87 85 80 75 68 63 58 52 49 48 48 48 47
43 44 46 47 48 49 50 52 55 58 61 65 70 74 76 77 77 77 78 78 78 80 83 87 89 91 94 94 91 88 86 82 79 73 67 62 58 55 53 51 51 50
44 46 47 48 49 49 49 50 51 54 57 59 62 66 72 75 76 76 76 78 79 79 81 84 86 85 87 92 93 92 89 86 82 79 74 68 63 60 58 57 56 55
45 47 48 50 50 51 51 50 50 52 56 59 60 61 65 69 72 75 77 78 80 81 81 83 85 83 81 83 89 92 93 90 87 83 80 75 69 65 63 62 61 61
47 49 50 51 51 51 52 51 51 52 55 59 62 62 63 64 66 72 77 79 79 79 81 83 85 84 80 77 79 84 89 91 90 86 84 80 75 71 69 67 66 65
46 50 52 53 52 51 52 52 51 52 55 59 63 64 64 64 63 66 73 79 81 80 80 82 83 84 84 80 75 76 80 84 86 85 83 79 75 74 74 73 72 71
46 49 53 55 55 53 52 53 52 52 54 59 63 65 65 65 65 65 68 74 79 80 82 83 82 82 84 84 79 75 75 77 80 82 81 80 78 76 76 76 77 78
49 50 52 56 58 57 54 53 53 53 53 57 61 64 65 65 67 68 70 71 74 77 80 84 85 84 84 84 82 78 74 72 74 78 80 81 82 81 81 81 82 82
52 53 54 56 58 61 59 56 54 54 55 56 58 61 63 65 67 70 73 74 72 73 76 80 84 87 87 86 84 82 78 74 72 74 76 79 81 83 85 86 87 89
54 55 56 57 58 61 63 62 59 56 56 57 58 59 61 64 67 69 73 75 73 72 75 77 80 83 86 88 89 87 84 81 77 74 74 75 77 80 83 86 88 92
55 56 57 58 59 61 63 65 64 60 57 58 60 59 60 62 65 69 72 75 73 72 73 75 77 80 82 85 89 89 87 85 83 80 78 76 76 77 79 82 85 88
54 57 58 58 59 61 62 65 68 67 63 61 60 60 61 62 64 68 71 73 73 72 72 73 73 77 81 84 85 86 87 87 86 84 82 80 79 78 78 80 82 84
50 54 58 60 60 61 62 63 66 70 72 70 66 63 62 63 65 69 71 71 72 73 73 73 71 74 83 88 86 82 82 84 86 85 82 81 81 82 82 81 81 82
46 50 56 60 62 63 63 63 64 67 74 78 78 74 69 65 67 71 72 71 72 72 72 73 72 73 82 88 87 83 80 79 83 85 83 81 82 82 83 83 83 81
43 46 51 57 61 64 65 65 64 65 70 77 83 86 82 76 73 75 74 71 72 73 72 71 71 73 79 83 85 86 83 78 79 84 84 82 81 83 83 82 81 82
41 43 47 52 58 64 67 67 66 66 68 74 81 87 89 87 85 83 79 75 74 75 73 71 71 73 77 80 82 86 86 80 77 81 84 82 80 83 84 81 79 82

ECMWFNIL_prec_cthk_054.txt.gz
RH
27 29 30 31 32 33 35 37 39 43 46 49 51 52 54 55 56 57 58 59 59 59 59 58 57 56 55 55 53 51 49 48 46 45 43 42 40 39 41 43 45 49
28 30 31 32 33 34 35 37 39 41 43 46 49 51 52 54 56 58 60 62 64 64 63 63 62 61 61 60 59 56 54 51 50 48 46 44 43 41 40 39 39 41
28 30 32 34 34 35 37 38 40 41 43 45 47 49 51 53 55 57 60 63 65 67 67 68 68 67 67 67 66 63 58 55 53 52 50 48 46 44 42 40 39 38
28 29 31 34 35 36 38 40 42 43 45 47 48 49 51 53 55 56 59 62 64 66 68 70 72 72 73 73 73 70 65 61 58 56 53 51 49 47 46 44 43 41
27 29 31 33 35 37 39 41 43 45 47 50 51 53 54 55 57 58 60 62 63 64 67 70 73 75 78 79 78 77 74 68 64 62 59 55 53 51 49 47 46 45
27 29 30 32 34 36 38 41 43 46 48 50 52 54 56 57 59 61 62 64 64 65 66 69 72 75 81 84 83 82 81 77 72 68 65 62 59 55 53 51 48 47
27 28 30 32 34 35 37 40 43 46 48 50 52 54 56 59 61 63 64 66 67 67 68 69 71 74 80 86 87 85 85 83 78 74 71 68 65 62 59 56 54 51
27 28 30 32 33 35 37 39 41 44 47 49 51 53 55 58 61 63 65 67 69 69 69 69 71 73 77 85 89 89 87 86 83 78 75 71 69 66 63 60 57 54
28 29 29 31 33 35 37 38 41 43 45 46 47 49 51 53 56 60 64 67 70 71 70 69 71 73 75 81 88 91 89 87 85 81 77 73 71 68 66 64 62 59
32 30 30 31 33 35 37 39 40 42 43 44 45 46 48 49 52 56 60 64 68 71 71 71 71 73 75 78 83 89 91 88 86 83 77 72 67 65 64 63 61 58
37 33 32 32 33 35 38 40 41 42 44 44 45 46 47 50 52 54 57 60 65 70 72 72 72 74 76 77 78 84 90 91 88 84 80 73 67 63 61 58 55 52
42 38 36 35 35 35 38 41 43 44 44 45 46 46 48 50 53 55 57 59 62 67 70 72 73 74 76 77 77 78 84 90 90 86 83 79 74 68 63 59 55 51
46 44 41 38 37 37 38 41 44 45 46 46 46 47 48 51 54 56 58 59 60 63 67 71 73 75 76 78 77 74 76 83 88 88 86 84 80 75 70 64 59 55
47 48 47 44 41 40 39 40 44 47 48 48 47 47 48 51 55 57 58 59 60 61 64 68 72 75 77 78 77 74 72 74 80 85 86 86 85 82 77 72 65 60
48 49 49 49 47 45 43 42 43 47 50 50 49 48 48 50 54 58 59 60 61 62 64 66 68 71 76 79 79 77 72 69 71 77 81 83 84 85 83 80 74 68
48 48 49 51 51 50 49 47 46 46 49 53 53 51 50 50 53 57 60 61 61 62 65 68 67 67 71 77 81 80 76 71 69 70 73 76 78 80 82 81 79 75
50 49 48 49 51 52 53 52 51 50 50 53 56 56 54 52 53 55 58 60 62 64 66 68 70 69 69 73 78 81 79 75 71 69 70 71 72 73 76 77 76 73
50 50 50 49 49 51 53 54 55 54 53 53 56 59 59 56 55 56 57 58 61 65 66 67 69 71 71 71 74 76 78 77 75 72 71 71 71 71 71 73 74 74
49 50 50 50 49 49 51 55 56 56 56 56 57 60 62 62 61 58 57 58 60 63 67 68 69 71 72 72 73 74 75 76 76 76 74 72 72 71 70 71 72 74
48 48 49 50 50 48 48 52 56 57 58 58 58 59 62 66 68 65 61 59 58 61 65 68 70 72 72 72 73 73 73 74 76 77 77 76 75 74 73 72 70 71
49 48 48 49 50 49 47 48 52 57 60 60 59 59 61 65 70 73 71 65 60 61 66 69 71 73 73 73 73 72 71 72 74 76 76 75 75 74 74 73 71 71
49 49 48 48 49 49 48 47 48 53 58 62 61 60 61 62 67 74 79 77 69 65 68 71 71 72 73 72 71 71 70 71 73 76 76 74 73 73 74 74 73 74
50 48 48 49 48 48 48 48 47 49 53 59 62 63 63 63 65 70 78 83 81 76 74 74 72 73 74 73 70 70 71 71 72 74 75 74 74 74 75 78 78 78
53 49 48 49 49 48 48 48 48 49 50 54 59 64 65 65 66 69 74 81 87 88 86 82 78 76 75 73 71 70 70 70 70 72 74 74 74 73 73 77 81 80
56 51 47 48 49 49 49 48 48 48 49 51 55 61 67 69 68 70 73 77 83 90 93 93 91 88 84 78 74 72 70 70 70 72 75 76 75 73 71 74 78 80
59 54 48 46 48 50 50 49 48 48 49 52 53 58 66 70 71 73 75 76 80 87 92 96 98 98 94 89 84 79 75 73 72 73 77 79 78 75 72 72 76 80